Overview Statistics Trail Chart Weather Telemetry Raw packets
 

This is the latest recevied weather packets stored in our database for station/object KW6V-15. If no packets are shown the sender has not sent any weather packets the latest 10 day(s).

<< 8 9 10 11 12 13 14 >>
Time Temp. Humidity Pressure Rain* Wind** Luminosity Snow
1788188470 13.33° C 91% 1013.2 hPa 0 mm - - -
1788186670 12.78° C 91% 1013 hPa 0 mm - - -
1788184872 12.78° C 91% 1012.8 hPa 0 mm - - -
1788183029 12.78° C 92% 1012.6 hPa 0 mm - - -
1788181218 12.22° C 92% 1012.4 hPa 0 mm - - -
1788179468 12.22° C 92% 1012.4 hPa 0 mm - - -
1788177653 11.67° C 92% 1012.4 hPa 0 mm - - -
1788175865 10° C 91% 1012.5 hPa 0 mm - - -
1788174062 9.44° C 91% 1012.2 hPa 0 mm - - -
1788172245 10° C 91% 1012.1 hPa 0 mm - - -
1788170427 10.56° C 91% 1012 hPa 0 mm - - -
1788168657 11.11° C 91% 1011.9 hPa 0 mm - - -
1788165036 11.67° C 91% 1011.7 hPa 0 mm - - -
1788163236 11.67° C 91% 1011.9 hPa 0 mm - - -
1788161441 11.67° C 90% 1012 hPa 0 mm - - -
1788159627 11.11° C 90% 1012.2 hPa 0 mm - - -
1788157851 10.56° C 89% 1012.4 hPa 0 mm - - -
1788156051 11.67° C 89% 1012.5 hPa 0 mm - - -
1788154226 11.67° C 89% 1012.5 hPa 0 mm - - -
1788152469 11.67° C 89% 1012.9 hPa 0 mm - - -
1788150638 11.67° C 88% 1013 hPa 0 mm - - -
1788148842 12.22° C 87% 1012.7 hPa 0 mm - - -
1788147069 12.78° C 86% 1012.7 hPa 0 mm - - -
1788145229 13.33° C 85% 1012.7 hPa 0 mm - - -
1788143442 13.89° C 84% 1012.6 hPa 0 mm - - -

* Rain latest hour (hover to see other rain measurements)
** Current wind speed in m/s (hover to see current wind gust speed)